Powrót do katalogu

DELTA 1 DEB

AktywnySSO
NORAD 10644·DEBRIS·🇺🇸 United States

Wystrzelony Jul 29, 1976 z Vandenberg Space Force Base

Loading…

Następne Przeloty (najbliższe 24 godziny)

TLE

ŚwieżeSource: Space-Track

Epoka: Sep 14, 2026, 09:10 UTC

1 10644U 76077E   26257.38241841 -.00000083  00000-0 -21243-3 0  9993
2 10644 101.3869 221.5632 0105831 200.0731 315.3236 12.61841654305983

Śledź DELTA 1 DEB w czasie rzeczywistym z AllMySat

Download on the App Store